sat.trackr.live / text

‹ back to catalog

STARLINK-11348 [DTC]

NORAD 61694 · 2024-195H

PAYLOAD ACTIVE UNKNOWN

§ Identity

Operator
Country
US
Launch date
2024-10-30
Launch site
AFWTR
Launch vehicle
Mass (kg)
RCS (m²)

Purposes: comms

External: N2YO · Heavens-Above · Gunter

§ Orbital elements

Epoch: 2026-09-21T20:25:41.097504Z

Period
91.74 min
Inclination
53.1594°
Eccentricity
0.0000958
Mean motion
15.69706597 rev/d
Perigee alt
359.1 km
Apogee alt
360.4 km
Semi-major
6,737.9 km
B*
3.0429e-6
RAAN
139.2087°
Arg perigee
84.2304°
Mean anomaly
275.8823°
Rev number
10,984

§ Raw data

STARLINK-11348 [DTC]1 61694U 24195H   26264.85117011 -.00000220  00000+0  30429-5 0  99982 61694  53.1594 139.2087 0000958  84.2304 275.8823 15.69706597109840

JSON: /api/v1/satellites/61694 · /tle

For live sub-satellite position, see the globe view (requires WebGL).

§ Visibility from observer

Set your observer location to see the next 7 days of passes ≥ 10°. The values pass through the URL so the page stays shareable.

No JS? Fill the form by hand. The geolocation button needs JavaScript.